Flag for Sweden Weather past 2 weeks in Stockholm, Sweden

Now
70 °F

Sunny.


Feels Like: 70 °F
Forecast: 59 / 80 °F
Wind: 6 mph from South

Location: Stockholm Bromma Airport

Current Time: Jul 1, 2015 at 9:38:43 PM

Latest Report: Jul 1, 2015 at 9:20 PM


Visibility: 10 mi

Pressure: 30.24 "Hg

Humidity: 53%

Dew point: 52 °F

Location of StockholmLocation

Historic Weather in Stockholm — Graph

°F

Stockholm temperature yesterday

Maximum temperature yesterday: 70 °F (at 4:20 PM)
Minimum temperature yesterday: 55 °F (at 4:20 AM)
Average temperature yesterday: 61 °F

Past Weeks' High & Low Weather Summary

 TemperatureHumidityPressure
High75 °F (Jul 1, 1:50 PM)100% (Jun 17, 3:20 AM)30.24 "Hg (Jun 17, 3:20 AM)
Low41 °F (Jun 17, 2:50 AM)30% (Jun 17, 11:20 AM)29.56 "Hg (Jun 18, 7:20 AM)
Average58 °F75%29.85 "Hg
* Reported Jun 16 8:20 PM — Jul 1 8:20 PM, Stockholm, Weather by CustomWeather, © 2015

Note: Actual official high and low records may vary slightly from our data, if they occured in-between our weather recording intervals... More about our weather records

Advertising

Stockholm weather history for previous 24 hours

 ConditionsComfort  
Time TempWeatherWind HumidityBarometerVisibility
8:20 PM
Wed, Jul 1
72 °FSunny.7 mph50%30.24 "Hg10 mi
7:50 PM72 °FSunny.9 mph50%30.24 "Hg10 mi
7:20 PM72 °FSunny.8 mph50%30.24 "Hg10 mi
6:50 PM73 °FPassing clouds.9 mph50%30.24 "HgN/A
6:20 PM75 °FSunny.9 mph47%30.24 "Hg10 mi
5:50 PM75 °FPassing clouds.9 mph47%30.24 "HgN/A
5:20 PM75 °FSunny.9 mph47%30.24 "Hg10 mi
4:50 PM75 °FPassing clouds.8 mph47%30.24 "HgN/A
4:20 PM75 °FPassing clouds.8 mph47%30.24 "HgN/A
3:50 PM73 °FSunny.10 mph47%30.24 "Hg10 mi
3:20 PM75 °FPassing clouds.7 mph44%30.24 "HgN/A
2:50 PM75 °FPassing clouds.5 mph36%30.24 "HgN/A
2:20 PM75 °FPassing clouds.3 mph34%30.24 "HgN/A
1:50 PM75 °FSunny.5 mph36%30.24 "Hg10 mi
1:20 PM73 °FPassing clouds.7 mph38%30.24 "HgN/A
12:50 PM73 °FPassing clouds.7 mph41%30.24 "HgN/A
12:20 PM73 °FPassing clouds.8 mph41%30.24 "HgN/A
11:50 AM72 °FSunny.7 mph47%30.24 "Hg10 mi
11:20 AM72 °FPassing clouds.6 mph47%30.24 "HgN/A
10:50 AM72 °FSunny.3 mph50%30.24 "Hg10 mi
10:20 AM72 °FSunny.2 mph53%30.24 "Hg10 mi
9:50 AM70 °FSunny.2 mph53%30.24 "Hg10 mi
9:20 AM70 °FSunny.2 mph57%30.24 "Hg10 mi
8:50 AM70 °FSunny.2 mph60%30.24 "Hg10 mi
8:20 AM66 °FSunny.2 mph68%30.21 "Hg10 mi
7:50 AM64 °FSunny.2 mph78%30.21 "Hg10 mi
7:20 AM63 °FSunny.2 mph83%30.21 "Hg10 mi
6:50 AM61 °FSunny.No wind88%30.21 "Hg10 mi
6:20 AM59 °FSunny.No wind94%30.21 "Hg10 mi
5:50 AM57 °FSunny.No wind100%30.21 "Hg10 mi
5:20 AM54 °FCool.No wind100%30.21 "Hg1 mi
4:50 AM50 °FFog.No wind100%30.18 "Hg0 mi
4:20 AM50 °FFog.No wind100%30.18 "Hg0 mi
3:50 AM52 °FFog.No wind94%30.18 "Hg0 mi
3:20 AM52 °FFog.No wind100%30.18 "Hg0 mi
2:50 AM52 °FFog.No wind100%30.18 "Hg0 mi
2:20 AM54 °FFog.No wind94%30.18 "Hg0 mi
1:50 AM54 °FFog.No wind94%30.15 "Hg0 mi
1:20 AM54 °FLight fog.No wind100%30.15 "Hg0 mi
12:50 AM55 °FLight fog.2 mph94%30.15 "Hg3 mi
12:20 AM55 °FFog.No wind94%30.15 "Hg0 mi
11:50 PM
Tue, Jun 30
55 °FFog.No wind100%30.15 "Hg5 mi
11:20 PM57 °FPassing clouds.2 mph94%30.15 "HgN/A
10:50 PM57 °FPassing clouds.2 mph94%30.12 "HgN/A
10:20 PM57 °FPassing clouds.No wind94%30.12 "HgN/A
9:50 PM59 °FSunny.No wind94%30.12 "Hg10 mi
9:20 PM61 °FSprinkles. Scattered clouds.6 mph83%30.12 "HgN/A
Weather by CustomWeather, © 2015

See weather overviewHow to use our weather pages